GFSSW_con_sbcape_336.txt.gz
CAPE
2 2 3 2 1 0 0 0 0 0 0 0 0 0 0 0 0 0 0 0 0 31 0 0 0 0 0 0 0 0 8 6 9 18 73 69 369 509 459 455 321 251 101 78 155
2 2 2 3 1 0 0 0 0 0 0 0 0 0 0 0 0 0 0 0 12 20 0 0 0 0 0 9 0 3 0 2 19 0 113 163 381 263 441 353 120 35 7 0 81
1 2 2 0 2 2 0 0 0 0 0 0 0 0 0 0 0 0 0 6 165 9 0 0 0 0 0 2 1 1 29 43 62 21 152 107 373 422 421 366 29 0 0 0 0
1 2 2 0 1 2 1 0 0 0 0 0 0 0 0 0 0 0 187 179 252 0 0 0 0 0 0 0 0 38 0 2 31 207 221 346 361 614 582 550 67 0 0 0 0
1 2 2 1 0 1 1 0 0 0 0 0 0 0 0 0 0 0 78 120 0 0 0 0 0 0 4 1 0 63 24 22 40 101 293 348 462 475 371 223 21 0 0 0 0
0 2 1 1 0 0 1 0 0 0 0 0 0 0 0 0 0 0 0 0 0 0 0 0 0 0 3 34 4 1 17 0 2 0 346 430 430 533 369 113 3 0 0 0 0
0 2 0 0 0 0 1 0 0 0 0 0 0 0 0 0 0 0 0 0 0 0 0 0 0 13 0 14 13 2 1 0 7 0 217 282 348 605 173 12 0 0 0 0 0
1 1 0 0 0 0 1 0 0 0 0 0 0 0 0 0 0 0 0 0 0 0 0 0 0 0 0 0 6 2 0 1 5 33 10 190 378 498 186 7 0 0 0 0 0
1 0 0 1 0 1 0 0 0 0 0 0 0 0 0 0 0 0 0 0 0 0 0 0 3 19 5 10 0 0 1 13 101 22 72 181 337 577 144 27 0 0 0 0 0
1 0 0 0 0 2 0 0 0 0 0 0 0 0 0 0 0 0 0 0 0 0 0 0 7 17 0 0 1 4 4 32 20 2 16 117 195 418 290 70 41 36 13 2 0
2 0 1 0 0 1 0 0 0 0 0 0 0 0 0 0 0 0 0 0 0 0 0 0 0 0 4 0 1 52 26 32 102 48 83 43 175 108 238 123 74 63 25 17 0
1 0 0 0 0 0 0 0 0 0 0 0 0 0 0 0 0 0 0 0 0 0 0 0 0 0 0 0 3 46 93 49 78 130 48 120 238 84 164 143 172 156 96 53 48
1 0 0 0 0 0 0 0 0 0 0 0 0 0 0 0 0 0 0 0 0 0 0 0 0 0 0 4 3 1 1 3 7 97 138 133 77 33 8 82 228 333 296 124 85
1 0 0 0 0 0 0 0 0 0 0 0 0 0 0 0 0 0 0 0 0 0 0 0 0 0 2 3 5 16 2 0 0 1 23 184 26 13 29 55 127 215 313 217 59
0 0 0 2 0 0 0 0 0 0 0 0 0 0 0 0 0 0 0 0 0 0 0 0 0 0 24 21 3 23 1 0 0 0 0 0 0 0 0 3 19 0 0 0 0
0 1 0 0 0 0 0 0 0 0 0 0 0 0 0 0 0 0 0 0 0 0 0 0 0 0 26 15 18 12 8 0 0 0 0 0 9 0 0 12 0 0 0 0 0
0 0 0 0 0 0 0 0 0 0 0 0 9 10 0 0 0 0 0 0 0 0 0 0 0 0 40 13 2 2 0 0 0 0 0 0 1 0 0 0 0 0 0 0 0
0 0 0 0 0 0 0 0 0 0 2 0 3 0 27 0 0 0 0 0 0 0 0 0 0 13 3 6 22 10 0 0 0 0 0 0 1 0 0 0 0 0 0 0 0
0 0 0 0 0 0 0 0 0 21 56 22 34 65 28 2 0 0 41 149 93 14 2 0 0 29 86 97 59 3 0 0 0 0 0 0 0 0 0 0 0 0 0 0 0
0 0 0 0 0 0 0 0 0 147 104 59 36 40 80 42 70 83 145 96 61 49 0 1 1 68 30 117 23 10 0 0 0 0 0 0 0 0 0 0 0 0 0 0 0
0 0 0 0 0 0 0 0 17 90 46 0 24 19 51 22 67 154 31 150 53 103 6 0 17 6 0 0 0 0 0 0 0 0 0 0 0 0 0 0 0 0 0 0 0
0 0 0 0 0 0 0 0 11 68 15 169 99 280 85 38 87 83 110 109 106 111 129 0 0 0 0 0 0 0 0 0 0 0 0 0 0 0 0 0 0 0 0 0 0
0 0 0 0 0 0 0 0 0 0 55 46 214 131 57 123 94 176 176 81 15 50 2 4 0 0 0 0 0 2 0 0 0 0 0 0 0 0 0 0 0 0 0 0 0
0 0 0 0 0 0 0 0 49 14 66 44 56 86 42 12 43 118 113 220 152 29 0 1 1 0 0 0 0 0 0 0 0 0 0 0 0 0 0 0 0 0 0 0 0
0 0 221 9 0 0 0 1 71 131 62 23 51 56 43 99 126 62 123 34 21 12 0 3 0 0 0 0 1 0 0 0 0 0 0 0 0 0 0 0 0 0 0 0 0
1 940 595 41 0 0 0 3 35 66 156 132 62 75 23 71 60 86 86 0 0 0 0 0 0 20 0 1 34 1 0 0 0 0 0 0 5 0 0 0 0 0 0 0 0
0 395 668 12 0 4 64 109 242 140 56 75 55 62 13 0 0 79 54 19 23 0 11 1 6 8 1 12 52 3 0 0 0 0 0 0 0 0 0 0 0 0 0 0 0

GFSSW_con_sbcape_339.txt.gz
CAPE
2 1 1 0 0 3 1 0 0 0 0 0 0 0 0 0 0 0 0 0 0 17 0 0 0 0 0 0 0 0 0 0 0 3 2 141 387 349 242 93 220 131 70 49 68
2 0 0 0 0 1 2 1 0 0 0 0 0 0 0 0 0 0 0 0 19 46 0 0 0 0 0 0 0 0 0 0 0 0 11 123 300 348 245 183 36 0 47 117 86
2 0 0 1 0 0 1 1 0 0 0 0 0 0 0 0 0 0 0 1 86 35 0 0 0 0 0 0 0 1 0 3 5 9 1 117 229 246 195 147 17 0 0 9 0
2 0 0 2 0 0 0 1 0 0 0 0 0 0 0 0 0 0 191 331 152 0 0 0 0 0 0 0 5 8 2 0 7 101 101 128 324 348 419 333 13 0 0 0 0
1 0 1 0 0 0 0 1 0 0 0 0 0 0 0 0 0 41 613 424 0 0 0 0 0 0 0 0 2 13 0 0 10 30 153 309 408 326 188 0 0 0 0 0 0
1 0 0 0 0 0 0 1 0 0 0 0 0 0 0 0 0 0 0 0 0 0 0 0 0 0 1 1 3 0 27 4 0 70 338 320 222 304 179 0 0 0 0 0 0
3 0 0 0 0 0 0 1 0 0 0 0 0 0 0 0 0 0 0 0 0 0 0 0 0 7 0 17 12 2 83 19 0 21 328 251 280 427 212 0 0 0 0 0 0
3 0 2 0 0 0 0 1 0 0 0 0 0 0 0 0 0 0 0 0 0 0 0 0 0 0 0 2 2 0 1 4 0 0 321 243 247 262 69 5 0 0 0 0 0
0 0 0 0 1 0 1 1 0 0 0 0 0 0 0 0 0 0 0 0 0 0 0 0 0 0 1 1 0 0 4 28 71 60 173 187 335 352 18 1 2 0 0 0 0
1 1 0 0 0 0 0 0 0 0 0 0 0 0 0 0 0 0 0 0 0 0 0 0 0 0 0 0 0 0 24 4 64 55 43 176 399 205 95 58 2 0 0 0 0
2 0 1 0 0 0 0 0 0 0 0 0 0 0 0 0 0 0 0 0 0 0 0 0 0 0 0 0 0 0 0 1 36 33 31 97 401 297 158 96 31 16 0 0 0
1 0 0 0 0 0 0 0 0 0 0 0 0 0 0 0 0 0 0 0 0 0 0 0 0 0 0 0 0 16 25 28 14 46 49 111 347 372 253 154 78 66 75 28 12
0 1 0 0 0 0 0 0 0 0 0 0 0 0 0 0 0 0 0 0 0 0 0 0 0 0 0 0 3 8 8 8 11 160 175 154 114 64 107 34 61 236 184 80 61
0 0 0 0 0 0 0 0 0 0 0 0 0 0 0 0 0 0 0 0 0 0 0 0 0 0 0 2 9 8 0 14 12 51 7 86 62 75 0 0 61 124 184 219 109
0 1 0 0 0 0 0 0 0 0 0 0 0 0 0 0 0 0 0 0 0 0 0 0 0 0 5 10 1 2 19 0 1 0 0 72 33 0 0 0 1 6 24 51 8
0 0 0 0 0 0 0 0 0 0 0 0 0 0 0 0 0 0 0 0 0 0 0 0 0 0 0 18 2 10 1 0 0 0 0 0 3 0 0 0 0 0 0 0 0
1 0 0 0 0 0 0 0 0 0 0 0 1 1 1 0 0 0 0 0 0 0 0 0 0 0 46 53 6 0 0 2 0 0 0 0 0 0 0 0 0 0 0 0 0
0 0 0 0 0 0 0 0 0 0 0 1 16 27 84 0 0 0 0 5 21 0 0 0 0 20 37 33 52 17 0 0 0 0 0 0 0 0 0 0 0 0 0 0 0
0 0 0 0 0 0 0 0 0 0 35 38 17 90 72 79 38 28 29 133 91 3 1 0 4 24 67 43 30 8 0 0 0 0 0 0 0 0 0 0 0 0 0 0 0
0 0 0 0 0 0 0 0 0 13 45 4 67 36 48 34 18 60 54 75 63 24 0 10 10 63 0 2 1 10 0 0 0 0 0 0 0 0 0 0 0 0 0 0 0
0 0 0 0 0 0 0 0 0 12 83 44 8 6 32 23 36 64 29 107 41 85 12 0 0 0 0 0 0 0 0 0 0 0 0 0 0 0 0 0 0 0 0 0 0
0 0 0 0 0 0 0 0 0 5 0 151 78 32 14 75 55 41 79 49 63 100 85 0 0 0 0 0 0 0 0 0 0 0 0 0 0 0 0 0 0 0 0 0 0
0 0 0 0 0 0 0 0 0 11 25 85 143 10 43 27 29 37 147 100 53 50 0 0 0 0 0 0 0 0 0 0 0 0 0 0 0 0 0 0 0 0 0 0 0
0 31 54 0 0 0 0 0 0 2 46 26 45 10 0 8 18 62 93 148 101 2 14 0 0 0 0 0 0 0 0 0 0 0 0 0 0 0 0 0 0 0 0 0 0
0 0 18 5 0 0 0 0 0 11 14 0 3 14 1 4 31 19 102 63 31 2 0 0 0 0 3 0 0 0 0 0 0 0 0 0 0 0 0 0 0 0 0 0 0
110 409 169 0 0 0 0 8 52 0 44 16 0 35 13 0 0 0 73 46 33 4 0 0 0 0 0 0 1 0 0 0 0 0 0 0 0 0 0 0 0 0 0 0 0
0 0 18 0 0 0 24 60 81 54 11 112 90 67 2 0 2 0 24 13 12 7 0 0 0 0 0 0 3 0 0 0 0 0 0 0 0 0 0 0 0 0 0 0 0

GFSSW_con_sbcape_342.txt.gz
CAPE
2 0 0 0 0 0 0 1 1 0 0 0 0 0 0 0 0 0 0 0 0 1 0 0 0 0 0 0 0 0 0 0 0 0 0 85 240 238 97 51 154 78 30 0 44
1 0 0 0 0 0 0 1 1 0 0 0 0 0 0 0 0 0 0 0 2 2 0 0 0 0 0 0 0 0 0 0 0 0 0 143 312 289 146 120 54 6 47 44 47
2 0 1 0 1 0 0 0 1 0 0 0 0 0 0 0 0 0 0 13 25 6 0 0 0 0 0 0 0 0 0 1 0 0 0 84 179 210 134 112 43 10 56 66 7
1 0 0 0 0 0 0 0 1 0 0 0 0 0 0 0 0 0 42 16 58 0 0 0 0 0 0 0 0 0 0 0 1 40 1 74 112 120 172 93 39 1 51 0 0
2 0 0 0 0 0 1 0 2 0 0 0 0 0 0 0 0 355 210 135 0 0 0 0 0 0 0 0 15 25 28 15 10 54 74 251 236 212 22 0 0 0 0 0 0
3 0 0 0 0 0 0 0 1 0 0 0 0 0 0 0 0 70 10 0 0 0 0 0 0 0 0 3 11 0 16 4 0 138 292 267 216 166 4 0 0 0 0 0 0
0 0 0 0 0 1 0 0 1 0 0 0 0 0 0 0 0 0 0 0 0 0 0 0 0 0 0 3 4 6 80 10 4 63 312 216 268 340 18 0 0 0 0 0 0
0 0 0 0 1 0 0 0 2 0 0 0 0 0 0 0 0 0 0 0 0 0 0 0 0 0 1 0 0 4 0 19 1 3 266 236 170 313 0 0 0 0 0 0 0
1 0 0 0 0 0 0 0 0 0 0 0 0 0 0 0 0 0 0 0 0 0 0 0 0 0 0 0 0 0 0 0 5 0 302 187 208 334 18 0 0 0 0 0 0
2 0 0 0 0 0 0 0 0 0 0 0 0 0 0 0 0 0 0 0 0 0 0 0 0 1 0 0 0 0 0 0 21 10 242 208 118 370 99 39 0 0 0 0 0
1 0 0 0 0 0 0 0 0 0 0 0 0 0 0 0 0 0 0 0 0 0 0 0 0 0 0 0 0 0 0 0 0 40 28 71 154 473 233 59 48 0 0 0 0
0 1 0 0 0 0 0 0 0 0 0 0 0 0 0 0 0 0 0 0 0 0 0 0 0 0 0 0 0 0 1 13 3 7 3 33 225 347 393 181 70 19 2 5 1
0 1 0 0 0 0 0 0 0 0 0 0 0 0 0 0 0 0 0 0 0 0 0 0 0 0 0 0 0 0 7 4 6 209 188 138 98 238 389 363 201 100 83 40 41
0 1 0 1 0 0 0 0 0 0 0 0 0 0 0 0 0 0 0 0 0 0 0 0 0 0 0 0 5 12 0 1 134 28 9 22 24 31 86 215 177 144 152 160 91
0 0 0 0 0 0 0 0 0 0 0 0 0 0 0 0 0 0 0 0 0 0 0 0 0 0 0 0 1 26 0 0 0 1 0 63 65 0 1 47 13 43 86 36 94
1 0 0 0 0 0 0 0 0 0 0 0 0 0 0 0 0 0 0 0 0 0 0 0 0 0 0 0 0 8 14 0 0 0 0 0 46 3 0 10 0 0 0 0 0
1 0 0 0 0 0 0 0 0 0 0 0 0 0 0 4 1 0 0 0 0 0 0 0 0 0 6 27 0 0 0 11 5 0 0 0 0 10 0 0 0 0 0 0 0
0 0 0 0 0 0 0 0 0 0 0 0 11 18 24 33 9 5 0 24 19 0 0 0 0 36 19 24 29 0 2 28 15 2 0 0 2 0 0 0 0 0 0 0 0
0 0 0 0 0 0 0 0 0 0 0 39 4 60 43 74 63 37 40 0 42 0 0 1 2 14 64 34 46 13 0 0 0 0 0 0 0 0 0 0 0 0 0 0 0
0 0 0 0 0 0 0 0 0 0 6 0 3 27 13 13 20 67 75 99 106 89 0 18 9 19 59 1 0 0 0 0 0 0 0 0 0 0 0 24 0 0 0 0 0
0 0 0 0 0 0 0 0 0 0 3 0 6 8 32 13 8 57 65 64 123 142 19 3 2 0 0 0 0 0 0 0 0 0 0 0 0 0 0 0 8 0 0 0 0
0 0 0 0 0 0 0 0 0 0 1 43 11 20 21 16 18 14 70 70 70 115 101 1 0 7 0 0 0 0 0 0 0 0 0 0 0 0 0 0 0 0 0 0 0
0 0 0 0 0 0 0 0 0 0 0 52 203 4 66 26 0 2 74 88 73 38 0 0 0 0 0 0 0 0 0 0 0 0 0 0 0 0 0 0 0 0 0 0 0
0 78 0 0 0 0 0 0 0 0 0 0 32 4 4 6 0 0 45 98 86 1 32 0 0 0 0 0 0 0 0 0 0 0 0 0 0 0 0 0 0 0 0 0 0
0 15 0 0 0 0 0 0 0 0 0 0 30 17 18 27 34 23 37 95 12 0 0 0 0 0 0 0 0 0 0 0 0 0 0 0 0 0 0 0 0 0 0 0 0
174 97 2 0 0 0 0 0 0 0 0 15 3 28 5 36 37 22 29 31 35 0 0 0 0 0 0 0 0 0 0 0 0 0 0 0 0 0 0 0 0 0 0 0 0
0 0 0 0 0 0 0 14 40 28 19 45 28 43 11 3 0 7 1 0 0 0 0 0 0 0 10 0 0 0 0 0 0 0 0 0 0 0 0 0 0 0 0 0 0

GFSSW_con_sbcape_345.txt.gz
CAPE
1 0 1 0 1 0 0 0 2 0 0 0 0 0 0 0 0 0 0 0 0 25 8 0 0 0 0 0 0 0 40 124 82 101 65 222 279 384 146 109 91 97 90 14 165
1 0 2 1 0 0 1 0 2 1 0 0 0 0 0 0 0 0 0 0 0 20 0 0 0 0 0 0 0 22 80 102 48 8 36 309 289 471 336 148 148 110 122 206 172
1 2 0 3 1 0 0 1 0 1 0 0 0 0 0 0 0 0 0 5 17 6 0 0 0 0 0 0 0 7 50 40 59 34 16 319 445 555 451 307 216 239 257 218 145
0 0 0 1 0 0 1 0 0 1 0 0 0 0 0 0 0 0 0 47 106 0 0 0 0 0 0 22 6 35 21 31 50 59 70 319 458 524 520 302 96 113 250 205 148
0 0 1 0 0 0 1 1 0 1 0 0 0 0 0 0 0 0 296 72 0 0 0 0 0 0 3 27 48 43 74 45 24 94 95 377 489 432 414 12 4 203 177 153 125
1 0 1 0 0 0 0 0 0 0 0 0 0 0 0 0 0 65 1 0 0 0 0 0 0 0 4 32 36 2 42 52 30 270 403 469 501 436 337 0 11 130 79 84 90
1 1 1 0 0 1 0 0 0 1 0 0 0 0 0 0 0 3 0 0 0 0 0 0 0 24 30 53 25 5 67 31 28 494 572 477 543 610 279 0 11 89 88 49 31
3 1 1 0 0 0 0 0 0 1 0 0 0 0 0 0 0 0 0 0 0 0 0 0 0 7 71 16 4 31 34 319 9 407 552 508 405 586 105 2 4 36 30 26 37
1 1 0 1 0 0 1 0 0 0 0 0 0 0 0 0 0 0 0 0 0 0 0 0 14 47 31 98 69 16 37 52 38 67 616 680 603 556 162 48 49 1 0 3 49
0 2 0 1 1 1 0 0 0 0 0 0 0 0 0 0 0 0 0 0 0 0 0 0 23 91 15 46 6 1 21 14 16 64 454 608 679 579 396 94 114 7 0 0 0
0 1 0 0 1 0 0 0 0 0 0 0 0 0 0 0 0 0 0 0 0 0 0 0 12 40 0 53 14 0 0 0 12 69 191 312 395 411 774 327 275 188 29 12 1
0 0 0 0 0 0 0 0 0 0 0 0 0 0 0 0 0 0 0 0 0 0 0 0 3 1 0 0 1 0 17 57 66 104 168 160 296 367 762 619 513 488 330 174 142
0 0 1 0 1 0 0 0 0 0 0 0 0 0 0 0 0 0 0 0 0 0 0 0 0 0 0 0 2 14 63 78 59 237 251 325 376 583 607 663 610 567 473 340 328
0 1 0 0 0 0 0 0 0 0 0 0 0 0 0 0 0 0 0 0 0 0 0 0 0 0 0 0 2 0 18 39 193 203 124 269 132 353 552 719 735 713 763 585 528
0 0 0 0 0 0 0 0 0 0 0 0 0 0 0 0 0 0 0 0 0 0 0 1 0 0 0 1 0 0 6 19 86 71 53 220 243 358 142 456 578 788 715 740 685
2 0 0 0 0 0 0 0 0 0 0 0 0 0 0 0 0 0 0 0 0 0 0 0 0 0 0 0 0 30 73 1 0 8 80 55 234 110 404 459 367 345 478 648 528
2 1 0 0 0 0 0 0 0 0 0 0 0 0 0 16 1 0 0 0 1 3 21 5 0 0 0 76 60 64 159 147 80 42 67 70 203 316 182 131 148 163 222 132 161
0 0 0 0 0 0 0 0 0 0 0 0 3 21 90 105 37 93 0 0 3 0 5 0 1 53 122 164 224 71 226 257 121 71 59 45 151 297 47 60 68 33 41 53 34
0 0 0 0 0 0 0 0 0 0 0 13 0 37 56 113 80 152 50 1 61 0 45 7 39 82 125 100 167 57 129 0 37 0 0 0 1 11 57 131 84 8 0 13 36
0 0 0 0 0 0 0 0 0 0 0 0 0 44 93 102 70 93 77 124 142 132 119 128 194 108 165 64 0 56 0 0 0 0 0 0 13 52 48 223 302 81 13 24 6
0 0 0 0 0 0 0 0 0 0 0 4 5 65 107 73 38 39 128 102 132 183 114 165 173 136 103 54 11 0 2 0 0 0 0 1 5 22 114 77 160 337 119 7 0
0 0 0 0 0 0 0 0 0 0 0 110 40 90 53 22 83 35 72 98 91 134 197 75 189 229 151 1 0 0 0 0 0 0 0 0 0 0 0 0 0 6 81 2 0
0 0 0 0 0 0 0 0 0 0 0 20 248 91 213 114 56 27 105 107 88 100 108 55 63 117 86 0 0 0 0 0 0 0 0 2 7 0 0 0 0 0 0 0 0
0 0 0 0 0 0 0 0 0 0 0 12 143 96 124 102 60 80 91 134 74 28 31 43 13 86 50 0 0 18 12 0 0 0 0 0 0 0 0 0 0 0 0 0 0
12 134 3 0 0 0 0 0 0 2 0 22 115 156 229 256 229 195 99 140 64 5 24 81 167 8 0 0 0 0 0 0 0 0 0 0 0 0 0 0 0 0 0 0 0
376 388 3 0 0 0 0 0 0 0 57 51 139 215 135 391 359 319 149 243 130 36 86 21 101 52 29 0 0 0 0 0 0 0 0 0 0 0 0 0 0 0 0 0 0
0 29 10 0 0 0 0 38 132 83 66 67 68 258 211 116 120 102 40 104 104 130 149 199 224 222 146 48 11 16 0 0 0 0 0 0 0 0 0 0 0 0 0 0 0